Time,TemperatureF,DewpointF,PressureIn,WindDirection,WindDirectionDegrees,WindSpeedMPH,WindSpeedGustMPH,Humidity,HourlyPrecipIn,Conditions,Clouds,dailyrainin,SoftwareType,DateUTC
2013-05-27 00:00:00,48.0,39.0,-100.00,SSW,206,0.0,0.0,72,-99.99,,,-99.99,,2013-05-27 04:00:00,
2013-05-27 00:23:00,48.0,39.0,-100.00,SSW,206,0.0,0.0,72,-99.99,,,-99.99,,2013-05-27 04:23:00,
2013-05-27 00:33:00,48.0,39.0,-100.00,SSW,206,0.0,0.0,72,-99.99,,,-99.99,,2013-05-27 04:33:00,
2013-05-27 00:43:00,48.0,39.0,-100.00,SSW,206,0.0,0.0,72,-99.99,,,-99.99,,2013-05-27 04:43:00,
2013-05-27 00:53:00,48.0,39.0,-100.00,SSW,206,0.0,0.0,72,-99.99,,,-99.99,,2013-05-27 04:53:00,
2013-05-27 01:00:00,46.0,39.0,-100.00,West,265,0.0,4.0,76,-99.99,,,-99.99,,2013-05-27 05:00:00,
2013-05-27 01:32:00,46.0,39.0,-100.00,West,265,0.0,4.0,76,-99.99,,,-99.99,,2013-05-27 05:32:00,
2013-05-27 01:42:00,46.0,39.0,-100.00,West,265,0.0,4.0,76,-99.99,,,-99.99,,2013-05-27 05:42:00,
2013-05-27 01:52:00,46.0,39.0,-100.00,West,265,0.0,4.0,76,-99.99,,,-99.99,,2013-05-27 05:52:00,
2013-05-27 02:00:00,44.0,37.0,-100.00,WSW,252,0.0,0.0,76,-99.99,,,-99.99,,2013-05-27 06:00:00,
2013-05-27 02:22:00,44.0,37.0,-100.00,WSW,252,0.0,0.0,76,-99.99,,,-99.99,,2013-05-27 06:22:00,
2013-05-27 02:32:00,44.0,37.0,-100.00,WSW,252,0.0,0.0,76,-99.99,,,-99.99,,2013-05-27 06:32:00,
2013-05-27 02:42:00,44.0,37.0,-100.00,WSW,252,0.0,0.0,76,-99.99,,,-99.99,,2013-05-27 06:42:00,
2013-05-27 02:52:00,44.0,37.0,-100.00,WSW,252,0.0,0.0,76,-99.99,,,-99.99,,2013-05-27 06:52:00,
2013-05-27 03:00:00,43.0,38.0,-100.00,WSW,240,0.0,0.0,84,-99.99,,,-99.99,,2013-05-27 07:00:00,
2013-05-27 03:21:00,43.0,38.0,-100.00,WSW,240,0.0,0.0,84,-99.99,,,-99.99,,2013-05-27 07:21:00,
2013-05-27 03:32:00,43.0,38.0,-100.00,WSW,240,0.0,0.0,84,-99.99,,,-99.99,,2013-05-27 07:32:00,
2013-05-27 03:42:00,43.0,38.0,-100.00,WSW,240,0.0,0.0,84,-99.99,,,-99.99,,2013-05-27 07:42:00,
2013-05-27 03:53:00,43.0,38.0,-100.00,WSW,240,0.0,0.0,84,-99.99,,,-99.99,,2013-05-27 07:53:00,
2013-05-27 04:00:00,43.0,38.0,-100.00,WSW,257,0.0,3.0,81,-99.99,,,-99.99,,2013-05-27 08:00:00,
2013-05-27 04:33:00,43.0,38.0,-100.00,WSW,257,0.0,3.0,81,-99.99,,,-99.99,,2013-05-27 08:33:00,
2013-05-27 04:42:00,43.0,38.0,-100.00,WSW,257,0.0,3.0,81,-99.99,,,-99.99,,2013-05-27 08:42:00,
2013-05-27 04:52:00,43.0,38.0,-100.00,WSW,257,0.0,3.0,81,-99.99,,,-99.99,,2013-05-27 08:52:00,
2013-05-27 05:00:00,43.0,37.0,-100.00,WSW,250,0.0,0.0,79,-99.99,,,-99.99,,2013-05-27 09:00:00,
2013-05-27 05:22:00,43.0,37.0,-100.00,WSW,250,0.0,0.0,79,-99.99,,,-99.99,,2013-05-27 09:22:00,
2013-05-27 05:33:00,43.0,37.0,-100.00,WSW,250,0.0,0.0,79,-99.99,,,-99.99,,2013-05-27 09:33:00,
2013-05-27 05:42:00,43.0,37.0,-100.00,WSW,250,0.0,0.0,79,-99.99,,,-99.99,,2013-05-27 09:42:00,
2013-05-27 05:53:00,43.0,37.0,-100.00,WSW,250,0.0,0.0,79,-99.99,,,-99.99,,2013-05-27 09:53:00,
2013-05-27 06:00:00,44.0,38.0,-100.00,SW,236,0.0,0.0,79,-99.99,,,-99.99,,2013-05-27 10:00:00,
2013-05-27 06:23:00,44.0,38.0,-100.00,SW,236,0.0,0.0,79,-99.99,,,-99.99,,2013-05-27 10:23:00,
2013-05-27 06:32:00,44.0,38.0,-100.00,SW,236,0.0,0.0,79,-99.99,,,-99.99,,2013-05-27 10:32:00,
2013-05-27 06:42:00,44.0,38.0,-100.00,SW,236,0.0,0.0,79,-99.99,,,-99.99,,2013-05-27 10:42:00,
2013-05-27 06:53:00,44.0,38.0,-100.00,SW,236,0.0,0.0,79,-99.99,,,-99.99,,2013-05-27 10:53:00,
2013-05-27 07:00:00,52.0,41.0,-100.00,West,262,0.0,1.0,67,-99.99,,,-99.99,,2013-05-27 11:00:00,
2013-05-27 07:22:00,52.0,41.0,-100.00,West,262,0.0,1.0,67,-99.99,,,-99.99,,2013-05-27 11:22:00,
2013-05-27 07:32:00,52.0,41.0,-100.00,West,262,0.0,1.0,67,-99.99,,,-99.99,,2013-05-27 11:32:00,
2013-05-27 07:42:00,52.0,41.0,-100.00,West,262,0.0,1.0,67,-99.99,,,-99.99,,2013-05-27 11:42:00,
2013-05-27 07:52:00,52.0,41.0,-100.00,West,262,0.0,1.0,67,-99.99,,,-99.99,,2013-05-27 11:52:00,
2013-05-27 08:00:00,59.0,39.0,-100.00,SW,222,0.0,5.0,47,-99.99,,,-99.99,,2013-05-27 12:00:00,
2013-05-27 08:32:00,59.0,39.0,-100.00,SW,222,0.0,5.0,47,-99.99,,,-99.99,,2013-05-27 12:32:00,
2013-05-27 08:42:00,59.0,39.0,-100.00,SW,222,0.0,5.0,47,-99.99,,,-99.99,,2013-05-27 12:42:00,
2013-05-27 08:52:00,59.0,39.0,-100.00,SW,222,0.0,5.0,47,-99.99,,,-99.99,,2013-05-27 12:52:00,
2013-05-27 09:00:00,61.0,38.0,-100.00,WSW,253,2.0,7.0,42,-99.99,,,-99.99,,2013-05-27 13:00:00,
2013-05-27 09:22:00,61.0,38.0,-100.00,WSW,253,2.0,7.0,42,-99.99,,,-99.99,,2013-05-27 13:22:00,
2013-05-27 09:32:00,61.0,38.0,-100.00,WSW,253,2.0,7.0,42,-99.99,,,-99.99,,2013-05-27 13:32:00,
2013-05-27 09:42:00,61.0,38.0,-100.00,WSW,253,2.0,7.0,42,-99.99,,,-99.99,,2013-05-27 13:42:00,
2013-05-27 09:53:00,61.0,38.0,-100.00,WSW,253,2.0,7.0,42,-99.99,,,-99.99,,2013-05-27 13:53:00,
2013-05-27 10:00:00,65.0,33.0,-100.00,NNW,328,0.0,9.0,31,-99.99,,,-99.99,,2013-05-27 14:00:00,
2013-05-27 10:32:00,65.0,33.0,-100.00,NNW,328,0.0,9.0,31,-99.99,,,-99.99,,2013-05-27 14:32:00,
2013-05-27 10:42:00,65.0,33.0,-100.00,NNW,328,0.0,9.0,31,-99.99,,,-99.99,,2013-05-27 14:42:00,
2013-05-27 10:52:00,65.0,33.0,-100.00,NNW,328,0.0,9.0,31,-99.99,,,-99.99,,2013-05-27 14:52:00,
2013-05-27 11:00:00,65.0,32.0,-100.00,WSW,246,3.0,11.0,29,-99.99,,,-99.99,,2013-05-27 15:00:00,
2013-05-27 11:33:00,65.0,32.0,-100.00,WSW,246,3.0,11.0,29,-99.99,,,-99.99,,2013-05-27 15:33:00,
2013-05-27 11:43:00,65.0,32.0,-100.00,WSW,246,3.0,11.0,29,-99.99,,,-99.99,,2013-05-27 15:43:00,
2013-05-27 11:53:00,65.0,32.0,-100.00,WSW,246,3.0,11.0,29,-99.99,,,-99.99,,2013-05-27 15:53:00,
2013-05-27 12:00:00,67.0,34.0,-100.00,WSW,241,5.0,12.0,29,-99.99,,,-99.99,,2013-05-27 16:00:00,
2013-05-27 12:23:00,67.0,34.0,-100.00,WSW,241,5.0,12.0,29,-99.99,,,-99.99,,2013-05-27 16:23:00,
2013-05-27 12:33:00,67.0,34.0,-100.00,WSW,241,5.0,12.0,29,-99.99,,,-99.99,,2013-05-27 16:33:00,
2013-05-27 12:42:00,67.0,34.0,-100.00,WSW,241,5.0,12.0,29,-99.99,,,-99.99,,2013-05-27 16:42:00,
2013-05-27 12:53:00,67.0,34.0,-100.00,WSW,241,5.0,12.0,29,-99.99,,,-99.99,,2013-05-27 16:53:00,
2013-05-27 13:00:00,69.0,35.0,-100.00,SSW,209,6.0,11.0,28,-99.99,,,-99.99,,2013-05-27 17:00:00,
2013-05-27 13:32:00,69.0,35.0,-100.00,SSW,209,6.0,11.0,28,-99.99,,,-99.99,,2013-05-27 17:32:00,
2013-05-27 13:43:00,69.0,35.0,-100.00,SSW,209,6.0,11.0,28,-99.99,,,-99.99,,2013-05-27 17:43:00,
2013-05-27 13:52:00,69.0,35.0,-100.00,SSW,209,6.0,11.0,28,-99.99,,,-99.99,,2013-05-27 17:52:00,
2013-05-27 14:00:00,71.0,36.0,-100.00,West,265,5.0,15.0,28,-99.99,,,-99.99,,2013-05-27 18:00:00,
2013-05-27 14:32:00,71.0,36.0,-100.00,West,265,5.0,15.0,28,-99.99,,,-99.99,,2013-05-27 18:32:00,
2013-05-27 14:42:00,71.0,36.0,-100.00,West,265,5.0,15.0,28,-99.99,,,-99.99,,2013-05-27 18:42:00,
2013-05-27 14:52:00,71.0,36.0,-100.00,West,265,5.0,15.0,28,-99.99,,,-99.99,,2013-05-27 18:52:00,
2013-05-27 15:00:00,72.0,33.0,-100.00,WNW,283,0.0,16.0,23,-99.99,,,-99.99,,2013-05-27 19:00:00,
2013-05-27 15:32:00,72.0,33.0,-100.00,WNW,283,0.0,16.0,23,-99.99,,,-99.99,,2013-05-27 19:32:00,
2013-05-27 15:42:00,72.0,33.0,-100.00,WNW,283,0.0,16.0,23,-99.99,,,-99.99,,2013-05-27 19:42:00,
2013-05-27 15:52:00,72.0,33.0,-100.00,WNW,283,0.0,16.0,23,-99.99,,,-99.99,,2013-05-27 19:52:00,
2013-05-27 16:00:00,68.0,44.0,-100.00,South,177,5.0,11.0,41,-99.99,,,-99.99,,2013-05-27 20:00:00,
2013-05-27 16:22:00,68.0,44.0,-100.00,South,177,5.0,11.0,41,-99.99,,,-99.99,,2013-05-27 20:22:00,
2013-05-27 16:32:00,68.0,44.0,-100.00,South,177,5.0,11.0,41,-99.99,,,-99.99,,2013-05-27 20:32:00,
2013-05-27 16:42:00,68.0,44.0,-100.00,South,177,5.0,11.0,41,-99.99,,,-99.99,,2013-05-27 20:42:00,
2013-05-27 16:53:00,68.0,44.0,-100.00,South,177,5.0,11.0,41,-99.99,,,-99.99,,2013-05-27 20:53:00,
2013-05-27 17:00:00,71.0,35.0,-100.00,South,182,0.0,13.0,26,-99.99,,,-99.99,,2013-05-27 21:00:00,
2013-05-27 17:22:00,71.0,35.0,-100.00,South,182,0.0,13.0,26,-99.99,,,-99.99,,2013-05-27 21:22:00,
2013-05-27 17:33:00,71.0,35.0,-100.00,South,182,0.0,13.0,26,-99.99,,,-99.99,,2013-05-27 21:33:00,
2013-05-27 17:43:00,71.0,35.0,-100.00,South,182,0.0,13.0,26,-99.99,,,-99.99,,2013-05-27 21:43:00,
2013-05-27 17:53:00,71.0,35.0,-100.00,South,182,0.0,13.0,26,-99.99,,,-99.99,,2013-05-27 21:53:00,
2013-05-27 18:00:00,71.0,36.0,-100.00,WSW,253,3.0,10.0,28,-99.99,,,-99.99,,2013-05-27 22:00:00,
2013-05-27 18:23:00,71.0,36.0,-100.00,WSW,253,3.0,10.0,28,-99.99,,,-99.99,,2013-05-27 22:23:00,
2013-05-27 18:33:00,71.0,36.0,-100.00,WSW,253,3.0,10.0,28,-99.99,,,-99.99,,2013-05-27 22:33:00,
2013-05-27 18:42:00,71.0,36.0,-100.00,WSW,253,3.0,10.0,28,-99.99,,,-99.99,,2013-05-27 22:42:00,
2013-05-27 18:53:00,71.0,36.0,-100.00,WSW,253,3.0,10.0,28,-99.99,,,-99.99,,2013-05-27 22:53:00,
2013-05-27 19:00:00,69.0,38.0,-100.00,SW,236,0.0,10.0,32,-99.99,,,-99.99,,2013-05-27 23:00:00,
2013-05-27 19:22:00,69.0,38.0,-100.00,SW,236,0.0,10.0,32,-99.99,,,-99.99,,2013-05-27 23:22:00,
2013-05-27 19:32:00,69.0,38.0,-100.00,SW,236,0.0,10.0,32,-99.99,,,-99.99,,2013-05-27 23:32:00,
2013-05-27 19:42:00,69.0,38.0,-100.00,SW,236,0.0,10.0,32,-99.99,,,-99.99,,2013-05-27 23:42:00,
2013-05-27 19:52:00,69.0,38.0,-100.00,SW,236,0.0,10.0,32,-99.99,,,-99.99,,2013-05-27 23:52:00,
2013-05-27 20:00:00,64.0,40.0,-100.00,WSW,254,0.0,5.0,40,-99.99,,,-99.99,,2013-05-28 00:00:00,
2013-05-27 20:22:00,64.0,40.0,-100.00,WSW,254,0.0,5.0,40,-99.99,,,-99.99,,2013-05-28 00:22:00,
2013-05-27 20:32:00,64.0,40.0,-100.00,WSW,254,0.0,5.0,40,-99.99,,,-99.99,,2013-05-28 00:32:00,
2013-05-27 20:42:00,64.0,40.0,-100.00,WSW,254,0.0,5.0,40,-99.99,,,-99.99,,2013-05-28 00:42:00,
2013-05-27 20:52:00,64.0,40.0,-100.00,WSW,254,0.0,5.0,40,-99.99,,,-99.99,,2013-05-28 00:52:00,
2013-05-27 21:00:00,60.0,43.0,-100.00,WSW,248,0.0,3.0,54,-99.99,,,-99.99,,2013-05-28 01:00:00,
2013-05-27 21:22:00,60.0,43.0,-100.00,WSW,248,0.0,3.0,54,-99.99,,,-99.99,,2013-05-28 01:22:00,
2013-05-27 21:32:00,60.0,43.0,-100.00,WSW,248,0.0,3.0,54,-99.99,,,-99.99,,2013-05-28 01:32:00,
2013-05-27 21:42:00,60.0,43.0,-100.00,WSW,248,0.0,3.0,54,-99.99,,,-99.99,,2013-05-28 01:42:00,
2013-05-27 21:52:00,60.0,43.0,-100.00,WSW,248,0.0,3.0,54,-99.99,,,-99.99,,2013-05-28 01:52:00,
2013-05-27 22:00:00,59.0,42.0,-100.00,SW,226,0.0,5.0,54,-99.99,,,-99.99,,2013-05-28 02:00:00,
2013-05-27 22:22:00,59.0,42.0,-100.00,SW,226,0.0,5.0,54,-99.99,,,-99.99,,2013-05-28 02:22:00,
2013-05-27 22:32:00,59.0,42.0,-100.00,SW,226,0.0,5.0,54,-99.99,,,-99.99,,2013-05-28 02:32:00,
2013-05-27 22:42:00,59.0,42.0,-100.00,SW,226,0.0,5.0,54,-99.99,,,-99.99,,2013-05-28 02:42:00,
2013-05-27 22:52:00,59.0,42.0,-100.00,SW,226,0.0,5.0,54,-99.99,,,-99.99,,2013-05-28 02:52:00,
2013-05-27 23:00:00,59.0,43.0,-100.00,West,266,5.0,5.0,54,-99.99,,,-99.99,,2013-05-28 03:00:00,
2013-05-27 23:33:00,59.0,43.0,-100.00,West,266,5.0,5.0,54,-99.99,,,-99.99,,2013-05-28 03:33:00,
2013-05-27 23:43:00,59.0,43.0,-100.00,West,266,5.0,5.0,54,-99.99,,,-99.99,,2013-05-28 03:43:00,
2013-05-27 23:53:00,59.0,43.0,-100.00,West,266,5.0,5.0,54,-99.99,,,-99.99,,2013-05-28 03:53:00,